• In Deutschland
  • Länderverzeichnis
  • Für 7 Tage
  • Wassertemperatur
  • Satellitenkarten
  • Wetterkarte
  • Widgets
  • user-avatar
    Anmelden

    Stündliche Wetter Sankt Pölten

    Heute, 27 Mai, Samstag

    Zeit Temperatur Niederschläge Wind Luftdruck Luftfeuchtigkeit
    00:00 +12°C° 0,1 mm 1 m/S 738 mmHg 95%
    01:00 +12°C° 0 mm 1 m/S 738 mmHg 95%
    02:00 +12°C° 0,1 mm 1 m/S 738 mmHg 95%
    03:00 +11°C° 0,1 mm 1 m/S 738 mmHg 95%
    04:00 +11°C° 0,1 mm 1 m/S 738 mmHg 95%
    05:00 +13°C° 0 mm 1 m/S 739 mmHg 91%
    06:00 +15°C° 0 mm 1 m/S 739 mmHg 87%
    07:00 +19°C° 0 mm 1 m/S 740 mmHg 83%
    08:00 +20°C° 0 mm 1 m/S 740 mmHg 75%
    09:00 +20°C° 0 mm 2 m/S 740 mmHg 66%
    10:00 +23°C° 0 mm 2 m/S 740 mmHg 58%
    11:00 +23°C° 0 mm 2 m/S 740 mmHg 55%
    12:00 +24°C° 0 mm 2 m/S 740 mmHg 52%
    13:00 +25°C° 0 mm 3 m/S 740 mmHg 50%
    14:00 +25°C° 0 mm 3 m/S 740 mmHg 51%
    15:00 +24°C° 0 mm 3 m/S 740 mmHg 53%
    16:00 +24°C° 0 mm 3 m/S 740 mmHg 54%
    17:00 +21°C° 0 mm 2 m/S 740 mmHg 63%
    18:00 +20°C° 0 mm 2 m/S 740 mmHg 72%
    19:00 +18°C° 0 mm 2 m/S 740 mmHg 81%
    20:00 +16°C° 0 mm 2 m/S 740 mmHg 85%
    21:00 +14°C° 0 mm 1 m/S 740 mmHg 89%
    22:00 +12°C° 0 mm 1 m/S 741 mmHg 93%
    23:00 +12°C° 0 mm 1 m/S 741 mmHg 93%

    Morgen, 28 Mai, Sonntag

    Zeit Temperatur Niederschläge Wind Luftdruck Luftfeuchtigkeit
    00:00 +11°C° 0 mm 1 m/S 741 mmHg 93%
    01:00 +11°C° 0 mm 1 m/S 741 mmHg 93%
    02:00 +11°C° 0 mm 1 m/S 741 mmHg 94%
    03:00 +10°C° 0 mm 1 m/S 741 mmHg 94%
    04:00 +10°C° 0 mm 1 m/S 741 mmHg 94%
    05:00 +12°C° 0 mm 1 m/S 741 mmHg 89%
    06:00 +15°C° 0 mm 1 m/S 741 mmHg 83%
    07:00 +18°C° 0 mm 1 m/S 741 mmHg 77%
    08:00 +19°C° 0 mm 2 m/S 741 mmHg 70%
    09:00 +21°C° 0 mm 2 m/S 741 mmHg 63%
    10:00 +24°C° 0 mm 2 m/S 741 mmHg 56%
    11:00 +25°C° 0 mm 3 m/S 741 mmHg 54%
    12:00 +26°C° 0 mm 3 m/S 741 mmHg 51%
    13:00 +26°C° 0 mm 4 m/S 741 mmHg 49%
    14:00 +26°C° 0 mm 4 m/S 741 mmHg 51%
    15:00 +26°C° 0 mm 4 m/S 740 mmHg 52%
    16:00 +26°C° 0 mm 4 m/S 740 mmHg 54%
    17:00 +24°C° 0 mm 3 m/S 740 mmHg 62%
    18:00 +22°C° 0 mm 3 m/S 739 mmHg 70%
    19:00 +20°C° 0 mm 2 m/S 739 mmHg 78%
    20:00 +18°C° 0 mm 2 m/S 739 mmHg 82%
    21:00 +16°C° 0 mm 2 m/S 739 mmHg 85%
    22:00 +15°C° 0 mm 2 m/S 739 mmHg 89%
    23:00 +14°C° 0 mm 2 m/S 739 mmHg 90%

    übermorgen, 29 Mai, Montag

    Zeit Temperatur Niederschläge Wind Luftdruck Luftfeuchtigkeit
    00:00 +13°C° 0 mm 1 m/S 739 mmHg 91%
    01:00 +13°C° 0 mm 1 m/S 739 mmHg 92%
    02:00 +13°C° 0 mm 1 m/S 739 mmHg 92%
    03:00 +12°C° 0 mm 1 m/S 738 mmHg 92%
    04:00 +12°C° 0 mm 1 m/S 738 mmHg 92%
    05:00 +15°C° 0 mm 1 m/S 738 mmHg 86%
    06:00 +18°C° 0 mm 1 m/S 738 mmHg 79%
    07:00 +19°C° 0 mm 0 m/S 738 mmHg 72%
    08:00 +23°C° 0 mm 1 m/S 738 mmHg 66%
    09:00 +25°C° 0 mm 1 m/S 738 mmHg 59%
    10:00 +27°C° 0 mm 1 m/S 738 mmHg 53%
    11:00 +28°C° 0 mm 1 m/S 738 mmHg 50%
    12:00 +28°C° 0 mm 1 m/S 737 mmHg 47%
    13:00 +29°C° 0 mm 2 m/S 737 mmHg 44%
    14:00 +29°C° 0 mm 2 m/S 737 mmHg 45%
    15:00 +29°C° 0 mm 2 m/S 737 mmHg 47%
    16:00 +28°C° 0 mm 2 m/S 736 mmHg 48%
    17:00 +26°C° 0 mm 2 m/S 736 mmHg 59%
    18:00 +24°C° 0 mm 1 m/S 736 mmHg 70%
    19:00 +22°C° 0 mm 1 m/S 735 mmHg 81%
    20:00 +20°C° 0 mm 1 m/S 735 mmHg 85%
    21:00 +18°C° 0 mm 1 m/S 735 mmHg 89%
    22:00 +15°C° 0 mm 1 m/S 735 mmHg 92%
    23:00 +15°C° 0 mm 1 m/S 735 mmHg 93%

    30 Mai, Dienstag

    Zeit Temperatur Niederschläge Wind Luftdruck Luftfeuchtigkeit
    00:00 +15°C° 0 mm 1 m/S 735 mmHg 93%
    01:00 +15°C° 0 mm 1 m/S 735 mmHg 93%
    02:00 +14°C° 0 mm 1 m/S 735 mmHg 93%
    03:00 +14°C° 0 mm 1 m/S 735 mmHg 93%
    04:00 +14°C° 0 mm 1 m/S 735 mmHg 94%
    05:00 +15°C° 0 mm 0 m/S 735 mmHg 87%
    06:00 +18°C° 0 mm 0 m/S 736 mmHg 80%
    07:00 +21°C° 0 mm 0 m/S 736 mmHg 73%
    08:00 +23°C° 0 mm 0 m/S 736 mmHg 66%
    09:00 +27°C° 0 mm 1 m/S 736 mmHg 59%
    10:00 +28°C° 0 mm 1 m/S 736 mmHg 51%
    11:00 +29°C° 0,2 mm 1 m/S 736 mmHg 50%
    12:00 +29°C° 0,2 mm 1 m/S 736 mmHg 50%
    13:00 +30°C° 0,2 mm 1 m/S 736 mmHg 49%
    14:00 +30°C° 0,8 mm 2 m/S 736 mmHg 52%
    15:00 +29°C° 0,8 mm 2 m/S 736 mmHg 54%
    16:00 +29°C° 0,8 mm 2 m/S 735 mmHg 57%
    17:00 +27°C° 0,3 mm 2 m/S 735 mmHg 65%
    18:00 +26°C° 0,3 mm 1 m/S 735 mmHg 74%
    19:00 +24°C° 0,3 mm 1 m/S 735 mmHg 83%
    20:00 +22°C° 0,1 mm 1 m/S 735 mmHg 86%
    21:00 +20°C° 0,1 mm 1 m/S 736 mmHg 89%
    22:00 +16°C° 0,1 mm 0 m/S 736 mmHg 92%
    23:00 +19°C° 0,5 mm 1 m/S 736 mmHg 92%

    31 Mai, Mittwoch

    Zeit Temperatur Niederschläge Wind Luftdruck Luftfeuchtigkeit
    00:00 +19°C° 0,5 mm 1 m/S 736 mmHg 92%
    01:00 +19°C° 0,5 mm 1 m/S 736 mmHg 92%
    02:00 +19°C° 0,5 mm 1 m/S 736 mmHg 92%
    03:00 +19°C° 0,5 mm 1 m/S 736 mmHg 93%
    04:00 +19°C° 0,5 mm 2 m/S 736 mmHg 93%
    05:00 +20°C° 0,3 mm 2 m/S 737 mmHg 91%
    06:00 +21°C° 0,3 mm 2 m/S 737 mmHg 89%
    07:00 +23°C° 0,3 mm 2 m/S 737 mmHg 87%
    08:00 +24°C° 0,3 mm 2 m/S 737 mmHg 82%
    09:00 +25°C° 0,3 mm 3 m/S 737 mmHg 77%
    10:00 +26°C° 0,3 mm 3 m/S 738 mmHg 71%
    11:00 +26°C° 0,3 mm 3 m/S 737 mmHg 70%
    12:00 +27°C° 0,3 mm 3 m/S 737 mmHg 68%
    13:00 +27°C° 0,3 mm 3 m/S 737 mmHg 66%
    14:00 +27°C° 0,8 mm 3 m/S 737 mmHg 70%
    15:00 +27°C° 0,8 mm 3 m/S 737 mmHg 74%
    16:00 +26°C° 0,8 mm 3 m/S 737 mmHg 79%
    17:00 +25°C° 0,7 mm 2 m/S 737 mmHg 83%
    18:00 +24°C° 0,7 mm 2 m/S 737 mmHg 87%
    19:00 +23°C° 0,7 mm 1 m/S 737 mmHg 91%
    20:00 +21°C° 0,2 mm 1 m/S 737 mmHg 92%
    21:00 +20°C° 0,2 mm 1 m/S 738 mmHg 94%
    22:00 +18°C° 0,2 mm 1 m/S 738 mmHg 96%
    23:00 +18°C° 0 mm 1 m/S 738 mmHg 96%

    1 Juni, Donnerstag

    Zeit Temperatur Niederschläge Wind Luftdruck Luftfeuchtigkeit
    00:00 +16°C° 0 mm 1 m/S 738 mmHg 96%
    01:00 +16°C° 0 mm 2 m/S 738 mmHg 96%
    02:00 +15°C° 0 mm 1 m/S 738 mmHg 96%
    03:00 +15°C° 0 mm 1 m/S 738 mmHg 96%
    04:00 +15°C° 0 mm 1 m/S 738 mmHg 95%
    05:00 +16°C° 0 mm 1 m/S 738 mmHg 92%
    06:00 +18°C° 0 mm 1 m/S 738 mmHg 88%
    07:00 +18°C° 0 mm 2 m/S 739 mmHg 85%
    08:00 +20°C° 0 mm 2 m/S 739 mmHg 76%
    09:00 +21°C° 0 mm 2 m/S 739 mmHg 68%
    10:00 +24°C° 0 mm 2 m/S 739 mmHg 60%
    11:00 +24°C° 0 mm 2 m/S 739 mmHg 58%
    12:00 +25°C° 0 mm 2 m/S 738 mmHg 56%
    13:00 +26°C° 0 mm 2 m/S 738 mmHg 54%
    14:00 +26°C° 0,1 mm 2 m/S 738 mmHg 55%
    15:00 +26°C° 0,1 mm 2 m/S 738 mmHg 56%
    16:00 +26°C° 0,1 mm 2 m/S 737 mmHg 57%
    17:00 +24°C° 0,1 mm 2 m/S 737 mmHg 64%
    18:00 +23°C° 0,1 mm 2 m/S 737 mmHg 71%
    19:00 +20°C° 0,1 mm 2 m/S 737 mmHg 78%
    20:00 +19°C° 0 mm 2 m/S 737 mmHg 81%
    21:00 +18°C° 0 mm 1 m/S 737 mmHg 85%
    22:00 +16°C° 0 mm 1 m/S 737 mmHg 88%
    23:00 +15°C° 0 mm 1 m/S 737 mmHg 89%
    Mehr zeigen